CUMBERLAND SOUND AT SEA CAMP DOC GA US USGS current weather conditions

sailwx.info

Wind from 316 at 7 knots

Last reported at 2019-Dec-05 14:00 UTC.
Time now 2019-Dec-05 15:28 UTC

Location: N 30°46' W 081°28'.
View on Google Maps.

See reports from other nearby stations

  
Tides and Currents Weather Stations Pressure Air Temp Water Temp Dewpoint Dewpoint Depression Visibility Wind Speed Wind Dir Waves Ship Positions
date/time (UTC)wind fromknots sea level pressurealtimeterstation pressurevisibilityair tempwater tempwave heightnotes
2019-Dec-05 14:00 316 7
2019-Dec-05 13:00 285 4
2019-Dec-05 12:00 291 8
2019-Dec-05 11:00 293 8
2019-Dec-05 10:00 290 11
2019-Dec-05 09:00 281 7
2019-Dec-05 08:00 270 7
2019-Dec-05 07:00 273 7
2019-Dec-05 06:00 248 11
2019-Dec-05 05:00 238 7
2019-Dec-05 04:00 243 7
2019-Dec-05 03:00 261 7
2019-Dec-05 02:00 264 8
2019-Dec-05 01:00 252 7
2019-Dec-05 00:00 245 6
2019-Dec-04 23:00 250 5
2019-Dec-04 22:00 250 11
2019-Dec-04 21:00 251 13
2019-Dec-04 20:00 262 15
2019-Dec-04 19:00 259 16
2019-Dec-04 18:00 249 15
2019-Dec-04 17:00 257 14
2019-Dec-04 16:00 278 14
2019-Dec-04 15:00 274 12
2019-Dec-04 14:00 266 15
2019-Dec-04 13:00 258 13
2019-Dec-04 12:00 252 10
2019-Dec-04 11:00 258 13
2019-Dec-04 10:00 254 14
2019-Dec-04 09:00 257 14
2019-Dec-04 08:00 251 14
2019-Dec-04 07:00
2019-Dec-04 06:00 238 12
2019-Dec-04 05:00 230 11
2019-Dec-04 04:00 237 9
2019-Dec-04 03:00 239 12
2019-Dec-04 02:00 251 9
2019-Dec-04 01:00 238 10
2019-Dec-04 00:00 236 9
2019-Dec-03 23:00 224 10
2019-Dec-03 22:00 237 12
2019-Dec-03 21:00 253 9
2019-Dec-03 20:00 265 9
2019-Dec-03 19:00 250 15
2019-Dec-03 18:00 235 7
2019-Dec-03 17:00 263 13
2019-Dec-03 16:00 274 11
2019-Dec-03 15:00 307 6